When you browse on this site, cookies collect data to enhance your experience and personalize the content and advertising you see.
Visit our Privacy Policy to learn more. By continuing to use the site, you agree to this use of cookies and data.
  • In Germany
  • List of Countries
  • For 7 days
  • Water Temperature
  • Satellite Maps
  • Weather Map
  • Weather Widgets
  • user-avatar
    Login

    Hourly Weather Ndjole

    Today, 19 February, Tuesday

    Time Temperature Precipitation Wind Pressure Humidity
    00:00 +27°C° 0 mm 1 mps 751 mmHg 95%
    01:00 +27°C° 0 mm 1 mps 751 mmHg 96%
    02:00 +26°C° 0.1 mm 1 mps 751 mmHg 97%
    03:00 +26°C° 0.1 mm 1 mps 751 mmHg 97%
    04:00 +24°C° 0.1 mm 0 mps 751 mmHg 98%
    05:00 +24°C° 0.1 mm 0 mps 751 mmHg 97%
    06:00 +24°C° 0.1 mm 0 mps 751 mmHg 97%
    07:00 +24°C° 0 mm 0 mps 751 mmHg 95%
    08:00 +28°C° 0 mm 1 mps 751 mmHg 86%
    09:00 +30°C° 0 mm 1 mps 751 mmHg 77%
    10:00 +32°C° 0 mm 1 mps 751 mmHg 68%
    11:00 +33°C° 0.5 mm 1 mps 751 mmHg 65%
    12:00 +33°C° 0.5 mm 1 mps 750 mmHg 63%
    13:00 +34°C° 0 mm 1 mps 749 mmHg 62%
    14:00 +35°C° 1 mm 2 mps 749 mmHg 65%
    15:00 +34°C° 1 mm 2 mps 749 mmHg 67%
    16:00 +34°C° 1 mm 2 mps 749 mmHg 69%
    17:00 +31°C° 0.9 mm 1 mps 749 mmHg 76%
    18:00 +30°C° 0.9 mm 1 mps 749 mmHg 83%
    19:00 +28°C° 0.9 mm 1 mps 749 mmHg 90%
    20:00 +28°C° 0.1 mm 1 mps 750 mmHg 90%
    21:00 +28°C° 0.1 mm 1 mps 750 mmHg 91%
    22:00 +26°C° 0.1 mm 0 mps 751 mmHg 92%
    23:00 +25°C° 0 mm 0 mps 751 mmHg 93%

    Tomorrow, 20 February, Wednesday

    Time Temperature Precipitation Wind Pressure Humidity
    00:00 +25°C° 0 mm 0 mps 751 mmHg 94%
    01:00 +25°C° 0 mm 0 mps 751 mmHg 94%
    02:00 +27°C° 0 mm 1 mps 750 mmHg 95%
    03:00 +26°C° 0 mm 1 mps 750 mmHg 96%
    04:00 +26°C° 0 mm 1 mps 749 mmHg 97%
    05:00 +26°C° 0 mm 1 mps 750 mmHg 97%
    06:00 +26°C° 0 mm 1 mps 750 mmHg 96%
    07:00 +24°C° 0 mm 0 mps 751 mmHg 96%
    08:00 +27°C° 0.4 mm 1 mps 751 mmHg 91%
    09:00 +29°C° 0.4 mm 1 mps 752 mmHg 87%
    10:00 +30°C° 0.4 mm 1 mps 752 mmHg 82%
    11:00 +31°C° 0.4 mm 1 mps 752 mmHg 75%
    12:00 +32°C° 0.4 mm 2 mps 751 mmHg 69%
    13:00 +34°C° 0.4 mm 2 mps 751 mmHg 62%
    14:00 +34°C° 0.2 mm 2 mps 750 mmHg 63%
    15:00 +34°C° 0.2 mm 2 mps 750 mmHg 63%
    16:00 +34°C° 0.2 mm 3 mps 749 mmHg 63%
    17:00 +31°C° 1 mm 2 mps 750 mmHg 72%
    18:00 +29°C° 1 mm 1 mps 751 mmHg 81%
    19:00 +28°C° 1 mm 1 mps 751 mmHg 90%
    20:00 +27°C° 1 mm 1 mps 752 mmHg 91%
    21:00 +27°C° 1 mm 1 mps 752 mmHg 92%
    22:00 +27°C° 1 mm 1 mps 753 mmHg 93%
    23:00 +27°C° 0.2 mm 1 mps 753 mmHg 94%

    Day after tomorrow, 21 February, Thursday

    Time Temperature Precipitation Wind Pressure Humidity
    00:00 +26°C° 0.2 mm 1 mps 753 mmHg 95%
    01:00 +26°C° 0.2 mm 1 mps 753 mmHg 96%
    02:00 +26°C° 0 mm 1 mps 752 mmHg 96%
    03:00 +26°C° 0 mm 1 mps 752 mmHg 96%
    04:00 +26°C° 0 mm 1 mps 751 mmHg 97%
    05:00 +26°C° 0 mm 1 mps 752 mmHg 96%
    06:00 +26°C° 0 mm 1 mps 752 mmHg 96%
    07:00 +26°C° 0 mm 1 mps 753 mmHg 96%
    08:00 +28°C° 0 mm 1 mps 753 mmHg 87%
    09:00 +29°C° 0 mm 1 mps 754 mmHg 78%
    10:00 +31°C° 0 mm 1 mps 754 mmHg 70%
    11:00 +32°C° 0 mm 1 mps 753 mmHg 65%
    12:00 +34°C° 0 mm 2 mps 753 mmHg 60%
    13:00 +35°C° 0 mm 2 mps 752 mmHg 55%
    14:00 +35°C° 0 mm 2 mps 751 mmHg 54%
    15:00 +36°C° 0 mm 2 mps 751 mmHg 53%
    16:00 +36°C° 0 mm 2 mps 750 mmHg 53%
    17:00 +34°C° 0.1 mm 2 mps 751 mmHg 61%
    18:00 +31°C° 0.1 mm 1 mps 751 mmHg 68%
    19:00 +29°C° 0.1 mm 1 mps 752 mmHg 76%
    20:00 +29°C° 1.1 mm 1 mps 753 mmHg 80%
    21:00 +28°C° 1.1 mm 1 mps 753 mmHg 85%
    22:00 +27°C° 1.1 mm 1 mps 754 mmHg 89%
    23:00 +27°C° 0 mm 1 mps 754 mmHg 91%

    22 February, Friday

    Time Temperature Precipitation Wind Pressure Humidity
    00:00 +27°C° 0 mm 1 mps 753 mmHg 92%
    01:00 +27°C° 0 mm 1 mps 753 mmHg 94%
    02:00 +26°C° 0 mm 1 mps 753 mmHg 95%
    03:00 +26°C° 0 mm 1 mps 752 mmHg 95%
    04:00 +26°C° 0 mm 1 mps 752 mmHg 96%
    05:00 +26°C° 0 mm 1 mps 752 mmHg 96%
    06:00 +26°C° 0 mm 1 mps 753 mmHg 96%
    07:00 +24°C° 0 mm 0 mps 753 mmHg 96%
    08:00 +27°C° 0 mm 1 mps 754 mmHg 89%
    09:00 +29°C° 0 mm 1 mps 754 mmHg 82%
    10:00 +30°C° 0 mm 1 mps 754 mmHg 75%
    11:00 +32°C° 0 mm 1 mps 754 mmHg 67%
    12:00 +35°C° 0 mm 2 mps 753 mmHg 59%
    13:00 +36°C° 0 mm 2 mps 752 mmHg 51%
    14:00 +36°C° 0 mm 2 mps 751 mmHg 51%
    15:00 +37°C° 0 mm 2 mps 750 mmHg 50%
    16:00 +37°C° 0 mm 2 mps 749 mmHg 49%
    17:00 +34°C° 0.9 mm 2 mps 750 mmHg 61%
    18:00 +31°C° 0.9 mm 2 mps 750 mmHg 73%
    19:00 +28°C° 0.9 mm 1 mps 751 mmHg 85%
    20:00 +28°C° 0.6 mm 1 mps 752 mmHg 87%
    21:00 +28°C° 0.6 mm 1 mps 752 mmHg 89%
    22:00 +25°C° 0.6 mm 0 mps 753 mmHg 90%
    23:00 +25°C° 0 mm 0 mps 753 mmHg 91%

    23 February, Saturday

    Time Temperature Precipitation Wind Pressure Humidity
    00:00 +25°C° 0 mm 0 mps 752 mmHg 91%
    01:00 +25°C° 0 mm 0 mps 752 mmHg 92%
    02:00 +26°C° 0 mm 1 mps 751 mmHg 93%
    03:00 +26°C° 0 mm 1 mps 751 mmHg 94%
    04:00 +26°C° 0 mm 1 mps 750 mmHg 95%
    05:00 +26°C° 0 mm 1 mps 751 mmHg 95%
    06:00 +24°C° 0 mm 0 mps 751 mmHg 95%
    07:00 +24°C° 0 mm 0 mps 752 mmHg 96%
    08:00 +26°C° 0 mm 0 mps 752 mmHg 85%
    09:00 +29°C° 0 mm 0 mps 752 mmHg 74%
    10:00 +31°C° 0 mm 0 mps 753 mmHg 63%
    11:00 +35°C° 0 mm 1 mps 752 mmHg 56%
    12:00 +36°C° 0 mm 1 mps 751 mmHg 50%
    13:00 +37°C° 0 mm 1 mps 750 mmHg 43%
    14:00 +37°C° 0 mm 1 mps 749 mmHg 43%
    15:00 +37°C° 0 mm 1 mps 749 mmHg 42%
    16:00 +38°C° 0 mm 2 mps 748 mmHg 42%
    17:00 +35°C° 0 mm 1 mps 748 mmHg 48%
    18:00 +33°C° 0 mm 1 mps 749 mmHg 55%
    19:00 +31°C° 0 mm 1 mps 749 mmHg 62%
    20:00 +30°C° 0.2 mm 1 mps 750 mmHg 70%
    21:00 +29°C° 0.2 mm 1 mps 750 mmHg 78%
    22:00 +28°C° 0.2 mm 2 mps 751 mmHg 86%
    23:00 +28°C° 0.2 mm 2 mps 751 mmHg 88%

    24 February, Sunday

    Time Temperature Precipitation Wind Pressure Humidity
    00:00 +27°C° 0.2 mm 1 mps 750 mmHg 90%
    01:00 +27°C° 0.2 mm 1 mps 750 mmHg 92%
    02:00 +27°C° 0.1 mm 1 mps 750 mmHg 94%
    03:00 +26°C° 0.1 mm 1 mps 750 mmHg 95%
    04:00 +26°C° 0.1 mm 1 mps 750 mmHg 96%
    05:00 +26°C° 0 mm 1 mps 750 mmHg 96%
    06:00 +27°C° 0 mm 1 mps 750 mmHg 95%
    07:00 +27°C° 0 mm 1 mps 751 mmHg 95%
    08:00 +28°C° 0 mm 1 mps 751 mmHg 88%
    09:00 +29°C° 0 mm 1 mps 751 mmHg 80%
    10:00 +31°C° 0 mm 1 mps 752 mmHg 73%
    11:00 +32°C° 0 mm 1 mps 751 mmHg 68%
    12:00 +34°C° 0 mm 2 mps 750 mmHg 63%
    13:00 +36°C° 0 mm 2 mps 749 mmHg 57%
    14:00 +35°C° 2.4 mm 2 mps 749 mmHg 63%
    15:00 +33°C° 2.4 mm 1 mps 748 mmHg 69%
    16:00 +32°C° 2.4 mm 1 mps 748 mmHg 76%
    17:00 +31°C° 0.6 mm 1 mps 748 mmHg 81%
    18:00 +29°C° 0.6 mm 1 mps 749 mmHg 86%
    19:00 +28°C° 0.6 mm 1 mps 750 mmHg 91%
    20:00 +28°C° 0.3 mm 1 mps 750 mmHg 92%
    21:00 +27°C° 0.3 mm 1 mps 750 mmHg 93%
    22:00 +27°C° 0.3 mm 1 mps 751 mmHg 93%
    23:00 +27°C° 0.6 mm 1 mps 751 mmHg 94%
    Show more